TimeCST,TemperatureF,Dew PointF,Humidity,Sea Level PressureIn,VisibilityMPH,Wind Direction,Wind SpeedMPH,Gust SpeedMPH,PrecipitationIn,Events,Conditions,WindDirDegrees,DateUTC
2:53 AM,45.0,41.0,86,29.90,4.0,SE,13.8,20.7,0.14,Rain,Rain,130,2012-12-15 08:53:00
3:53 AM,46.0,42.1,86,29.87,9.0,SE,13.8,20.7,0.03,Rain,Light Rain,140,2012-12-15 09:53:00
4:23 AM,46.4,42.8,87,29.84,7.0,SSE,15.0,23.0,0.01,Rain,Light Rain,150,2012-12-15 10:23:00
4:53 AM,46.0,43.0,89,29.82,9.0,SSE,13.8,-,0.02,Rain,Light Rain,150,2012-12-15 10:53:00
5:00 AM,46.4,42.8,87,29.82,4.0,SSE,12.7,21.9,0.03,Rain,Rain,160,2012-12-15 11:00:00
5:41 AM,46.4,44.6,93,29.82,5.0,SSE,11.5,-,0.08,Rain,Light Rain,150,2012-12-15 11:41:00
5:53 AM,46.9,44.1,90,29.82,5.0,SSE,10.4,-,0.09,Rain,Light Rain,160,2012-12-15 11:53:00
6:53 AM,48.0,45.0,89,29.77,10.0,SSE,10.4,20.7,0.01,,Overcast,160,2012-12-15 12:53:00
7:53 AM,50.0,45.0,83,29.77,10.0,South,15.0,29.9,N/A,,Overcast,180,2012-12-15 13:53:00
9:53 AM,53.1,48.0,83,29.73,10.0,South,12.7,26.5,N/A,,Overcast,180,2012-12-15 15:53:00
10:00 AM,53.6,48.2,82,29.73,10.0,SSW,11.5,31.1,N/A,,Overcast,200,2012-12-15 16:00:00
10:53 AM,55.0,48.0,77,29.70,10.0,South,10.4,19.6,N/A,,Overcast,180,2012-12-15 16:53:00
12:53 PM,59.0,48.0,67,29.63,10.0,South,12.7,25.3,N/A,,Overcast,190,2012-12-15 18:53:00
1:53 PM,60.1,46.9,62,29.61,10.0,SSW,13.8,26.5,N/A,,Overcast,200,2012-12-15 19:53:00
2:53 PM,62.1,48.0,60,29.60,10.0,SSW,11.5,21.9,N/A,,Mostly Cloudy,200,2012-12-15 20:53:00
3:53 PM,62.1,48.0,60,29.61,10.0,South,5.8,-,N/A,,Scattered Clouds,180,2012-12-15 21:53:00
4:53 PM,57.9,48.9,72,29.64,10.0,South,6.9,-,N/A,,Clear,180,2012-12-15 22:53:00
8:53 PM,54.0,48.9,83,29.70,10.0,SSW,4.6,-,N/A,,Clear,210,2012-12-16 02:53:00
9:53 PM,55.0,50.0,83,29.70,10.0,SSW,8.1,-,N/A,,Clear,210,2012-12-16 03:53:00
10:53 PM,54.0,48.9,83,29.71,10.0,SW,4.6,-,N/A,,Clear,230,2012-12-16 04:53:00
11:53 PM,53.1,46.0,77,29.71,10.0,SW,5.8,-,N/A,,Clear,220,2012-12-16 05:53:00